Tracking 25378 objects as of 22-Jan-2022
HD Live streaming from Space Station
objects crossing your sky now

ONEWEB-0027

Track ONEWEB-0027 now!
10-day predictions
ONEWEB-0027 is classified as:


NORAD ID: 45432
Int'l Code: 2020-020J
Perigee: 1,199.6 km
Apogee: 1,202.1 km
Inclination: 87.9 °
Period: 109.3 minutes
Semi major axis: 7571 km
RCS: Unknown
Launch date: March 21, 2020
Source: United Kingdom (UK)
Launch site: TYURATAM MISSILE AND SPACE COMPLEX (TTMTR)
aabbcc
Your satellite tracking list
Your tracking list is empty




NASA's NSSDC Master Catalog

Two Line Element Set (TLE):
1 45432U 20020J   22021.82384563  .00000065  00000-0  13340-3 0  9993
2 45432  87.9136 325.4811 0001676  87.7424 272.3900 13.17652270 94684
Source of the keplerian elements: AFSPC